GAP2143 RPMR-RPLL

Flight info

Callsign GAP2143
Flight time 1h 40m
Altitude 34000
Route LATIA4P LATIA W6 LUMVI B473 LAIYA LAIYA3R
Aircraft A320/M-SDE3FGHIRWY/LB1

Departure

Time 2026-04-20 14:34
Airport General Santos International Airport (RPMR)

Arrival

Time 2026-04-20 16:15
Airport Ninoy Aquino International Airport (RPLL)
Time Latitude Longitude Altitude Speed Heading
2026-04-20 14:12 6.05714 125.09956 514 ft 0 kts 83°
2026-04-20 14:23 6.05714 125.09955 514 ft 0 kts 83°
2026-04-20 14:23 6.05713 125.09943 511 ft 3 kts 83°
2026-04-20 14:23 6.05711 125.09925 515 ft 3 kts 83°
2026-04-20 14:24 6.05709 125.09908 517 ft 3 kts 94°
2026-04-20 14:24 6.05712 125.09892 515 ft 3 kts 128°
2026-04-20 14:24 6.05726 125.09880 514 ft 3 kts 163°
2026-04-20 14:24 6.05742 125.09877 514 ft 1 kts 173°
2026-04-20 14:25 6.05747 125.09876 514 ft 0 kts 173°
2026-04-20 14:27 6.05743 125.09877 514 ft 1 kts 173°
2026-04-20 14:27 6.05725 125.09879 514 ft 5 kts 173°
2026-04-20 14:27 6.05672 125.09886 514 ft 8 kts 173°
2026-04-20 14:27 6.05628 125.09891 514 ft 7 kts 173°
2026-04-20 14:28 6.05581 125.09897 511 ft 10 kts 173°
2026-04-20 14:28 6.05515 125.09905 514 ft 9 kts 173°
2026-04-20 14:28 6.05458 125.09912 514 ft 10 kts 174°
2026-04-20 14:28 6.05418 125.09883 514 ft 8 kts 252°
2026-04-20 14:29 6.05411 125.09834 514 ft 6 kts 262°
2026-04-20 14:29 6.05406 125.09793 514 ft 9 kts 263°
2026-04-20 14:29 6.05399 125.09733 515 ft 8 kts 263°
2026-04-20 14:29 6.05388 125.09685 514 ft 7 kts 236°
2026-04-20 14:30 6.05355 125.09674 513 ft 5 kts 181°
2026-04-20 14:30 6.05306 125.09680 514 ft 12 kts 172°
2026-04-20 14:30 6.05210 125.09692 513 ft 18 kts 173°
2026-04-20 14:30 6.05080 125.09707 514 ft 19 kts 173°
2026-04-20 14:31 6.04949 125.09724 515 ft 19 kts 173°
2026-04-20 14:31 6.04829 125.09738 515 ft 20 kts 173°
2026-04-20 14:31 6.04682 125.09756 514 ft 22 kts 173°
2026-04-20 14:31 6.04537 125.09774 515 ft 17 kts 172°
2026-04-20 14:32 6.04453 125.09785 514 ft 9 kts 167°
2026-04-20 14:32 6.04404 125.09810 515 ft 7 kts 171°
2026-04-20 14:32 6.04387 125.09792 515 ft 3 kts 259°
2026-04-20 14:32 6.04394 125.09779 515 ft 3 kts 309°
2026-04-20 14:33 6.04416 125.09778 515 ft 4 kts 17°
2026-04-20 14:33 6.04435 125.09784 514 ft 3 kts 16°
2026-04-20 14:33 6.04456 125.09784 513 ft 0 kts 353°
2026-04-20 14:33 6.04474 125.09782 515 ft 17 kts 353°
2026-04-20 14:34 6.04860 125.09735 515 ft 90 kts 353°
2026-04-20 14:34 6.05553 125.09650 514 ft 139 kts 353°
2026-04-20 14:34 6.06648 125.09510 698 ft 166 kts 352°
2026-04-20 14:34 6.07646 125.09379 1282 ft 165 kts 354°
2026-04-20 14:35 6.08778 125.09346 1923 ft 165 kts
2026-04-20 14:35 6.09847 125.09480 2420 ft 173 kts 13°
2026-04-20 14:35 6.11007 125.09818 2648 ft 194 kts 22°
2026-04-20 14:35 6.12285 125.10452 2913 ft 216 kts 33°
2026-04-20 14:36 6.13441 125.11329 3265 ft 236 kts 43°
2026-04-20 14:36 6.14518 125.12550 3649 ft 256 kts 53°
2026-04-20 14:36 6.15611 125.14001 4402 ft 263 kts 52°
2026-04-20 14:36 6.16726 125.15472 5238 ft 266 kts 52°
2026-04-20 14:37 6.17702 125.16772 5928 ft 270 kts 52°
2026-04-20 14:37 6.18854 125.18290 6690 ft 276 kts 51°
2026-04-20 14:37 6.19886 125.19641 7333 ft 280 kts 51°
2026-04-20 14:37 6.21080 125.21190 8051 ft 284 kts 51°
2026-04-20 14:38 6.22364 125.22717 8766 ft 289 kts 42°
2026-04-20 14:38 6.24000 125.23899 9462 ft 293 kts 26°
2026-04-20 14:38 6.25925 125.24597 10112 ft 297 kts 12°
2026-04-20 14:38 6.27995 125.25058 10471 ft 315 kts 12°
2026-04-20 14:39 6.30212 125.25558 10661 ft 337 kts 12°
2026-04-20 14:39 6.32538 125.26087 11138 ft 346 kts 12°
2026-04-20 14:39 6.34902 125.26629 11743 ft 351 kts 12°
2026-04-20 14:39 6.37081 125.27131 12302 ft 355 kts 12°
2026-04-20 14:40 6.39413 125.27667 12890 ft 359 kts 11°
2026-04-20 14:40 6.41898 125.27988 13487 ft 362 kts 359°
2026-04-20 14:40 6.44404 125.27714 14034 ft 364 kts 344°
2026-04-20 14:40 6.46773 125.26832 14558 ft 365 kts 330°
2026-04-20 14:41 6.48882 125.25410 15073 ft 366 kts 319°
2026-04-20 14:41 6.50620 125.24015 15527 ft 369 kts 320°
2026-04-20 14:41 6.52641 125.22401 16040 ft 373 kts 320°
2026-04-20 14:41 6.53992 125.21322 16364 ft 375 kts 320°
2026-04-20 14:42 6.56046 125.19682 16866 ft 378 kts 320°
2026-04-20 14:42 6.58556 125.17686 17477 ft 383 kts 321°
2026-04-20 14:42 6.60640 125.16056 17953 ft 386 kts 320°
2026-04-20 14:42 6.62756 125.14367 18407 ft 390 kts 319°
2026-04-20 14:43 6.64612 125.12872 18776 ft 393 kts 320°
2026-04-20 14:43 6.66749 125.11147 19206 ft 395 kts 320°
2026-04-20 14:43 6.68623 125.09636 19579 ft 398 kts 320°
2026-04-20 14:43 6.70790 125.07890 20007 ft 400 kts 320°
2026-04-20 14:44 6.72974 125.06139 20446 ft 403 kts 320°
2026-04-20 14:44 6.74891 125.04608 20818 ft 405 kts 321°
2026-04-20 14:44 6.77108 125.02838 21254 ft 408 kts 321°
2026-04-20 14:44 6.79336 125.01056 21698 ft 411 kts 321°
2026-04-20 14:45 6.81579 124.99259 22108 ft 413 kts 321°
2026-04-20 14:45 6.83837 124.97450 22528 ft 416 kts 321°
2026-04-20 14:45 6.85823 124.95859 22884 ft 419 kts 321°
2026-04-20 14:45 6.88124 124.94046 23277 ft 421 kts 324°
2026-04-20 14:46 6.90305 124.92718 23596 ft 423 kts 334°
2026-04-20 14:46 6.93053 124.91635 23918 ft 425 kts 345°
2026-04-20 14:46 6.95941 124.90995 24242 ft 427 kts 349°
2026-04-20 14:46 6.98492 124.90480 24521 ft 429 kts 349°
2026-04-20 14:47 7.01428 124.89880 24834 ft 431 kts 349°
2026-04-20 14:47 7.04374 124.89273 25140 ft 433 kts 349°
2026-04-20 14:47 7.06958 124.88737 25413 ft 435 kts 349°
2026-04-20 14:48 7.12919 124.87500 26013 ft 439 kts 349°
2026-04-20 14:48 7.15497 124.86966 26262 ft 441 kts 349°
2026-04-20 14:48 7.18514 124.86342 26552 ft 443 kts 349°
2026-04-20 14:48 7.21161 124.85793 26794 ft 445 kts 349°
2026-04-20 14:49 7.24206 124.85162 27078 ft 447 kts 349°
2026-04-20 14:49 7.26972 124.84588 27312 ft 449 kts 349°
2026-04-20 14:49 7.29948 124.83974 27573 ft 451 kts 349°
2026-04-20 14:49 7.33035 124.83338 27837 ft 453 kts 349°
2026-04-20 14:50 7.35737 124.82781 28071 ft 455 kts 350°
2026-04-20 14:50 7.38850 124.82139 28334 ft 457 kts 350°
2026-04-20 14:50 7.41578 124.81578 28557 ft 459 kts 350°
2026-04-20 14:50 7.44714 124.80933 28808 ft 461 kts 350°
2026-04-20 14:51 7.47871 124.80285 29060 ft 463 kts 350°
2026-04-20 14:51 7.50629 124.79720 29264 ft 465 kts 350°
2026-04-20 14:51 7.53805 124.79070 29509 ft 467 kts 350°
2026-04-20 14:51 7.56999 124.78412 29747 ft 469 kts 350°
2026-04-20 14:52 7.59780 124.77837 29944 ft 471 kts 350°
2026-04-20 14:52 7.62997 124.77170 30157 ft 473 kts 350°
2026-04-20 14:52 7.65801 124.76587 30327 ft 474 kts 350°
2026-04-20 14:52 7.69035 124.75919 30541 ft 475 kts 350°
2026-04-20 14:53 7.71859 124.75337 30714 ft 476 kts 350°
2026-04-20 14:53 7.75110 124.74666 30910 ft 477 kts 349°
2026-04-20 14:53 7.78353 124.73994 31197 ft 475 kts 349°
2026-04-20 14:53 7.81166 124.73408 31464 ft 474 kts 349°
2026-04-20 14:54 7.84391 124.72740 31762 ft 472 kts 349°
2026-04-20 14:54 7.87602 124.72074 32061 ft 471 kts 349°
2026-04-20 14:54 7.90459 124.71482 32336 ft 469 kts 349°
2026-04-20 14:54 7.93542 124.70843 32623 ft 468 kts 349°
2026-04-20 14:55 7.96729 124.70185 32920 ft 467 kts 349°
2026-04-20 14:55 7.99487 124.69615 33171 ft 466 kts 348°
2026-04-20 14:55 8.02661 124.68959 33451 ft 465 kts 348°
2026-04-20 14:55 8.04761 124.68526 33661 ft 464 kts 348°
2026-04-20 14:56 8.08577 124.67739 33967 ft 462 kts 348°
2026-04-20 14:56 8.14134 124.66594 34014 ft 451 kts 348°
2026-04-20 14:57 8.19226 124.65539 34004 ft 448 kts 348°
2026-04-20 14:57 8.25932 124.64160 34003 ft 448 kts 348°
2026-04-20 14:58 8.31644 124.62973 33995 ft 448 kts 348°
2026-04-20 14:58 8.36325 124.62000 33988 ft 448 kts 348°
2026-04-20 14:59 8.41947 124.60512 33980 ft 447 kts 336°
2026-04-20 14:59 8.47419 124.57551 33966 ft 446 kts 329°
2026-04-20 15:00 8.52444 124.54640 33950 ft 446 kts 329°
2026-04-20 15:00 8.57487 124.51722 33942 ft 446 kts 329°
2026-04-20 15:01 8.62525 124.48819 33940 ft 447 kts 329°
2026-04-20 15:01 8.67560 124.45923 33933 ft 447 kts 329°
2026-04-20 15:02 8.72930 124.42826 33931 ft 447 kts 329°
2026-04-20 15:02 8.77986 124.39905 33933 ft 447 kts 329°
2026-04-20 15:03 8.83055 124.36976 33930 ft 448 kts 329°
2026-04-20 15:03 8.88463 124.33842 33931 ft 448 kts 329°
2026-04-20 15:04 8.93536 124.30904 33930 ft 448 kts 329°
2026-04-20 15:04 8.98593 124.27986 33927 ft 448 kts 329°
2026-04-20 15:05 9.03654 124.25064 33932 ft 448 kts 329°
2026-04-20 15:05 9.08745 124.22104 33936 ft 449 kts 329°
2026-04-20 15:06 9.14078 124.18996 33934 ft 449 kts 329°
2026-04-20 15:06 9.19149 124.16063 33935 ft 449 kts 329°
2026-04-20 15:07 9.24220 124.13119 33936 ft 449 kts 328°
2026-04-20 15:07 9.29273 124.10168 33938 ft 450 kts 328°
2026-04-20 15:08 9.34705 124.07014 33939 ft 450 kts 329°
2026-04-20 15:08 9.39822 124.04130 33944 ft 451 kts 329°
2026-04-20 15:09 9.44909 124.01176 33940 ft 451 kts 328°
2026-04-20 15:09 9.49981 123.98217 33941 ft 451 kts 329°
2026-04-20 15:10 9.55074 123.95259 33949 ft 451 kts 329°
2026-04-20 15:10 9.60472 123.92111 33953 ft 450 kts 329°
2026-04-20 15:11 9.65548 123.89150 33952 ft 450 kts 329°
2026-04-20 15:11 9.70817 123.86090 33951 ft 450 kts 329°
2026-04-20 15:12 9.76076 123.83031 33944 ft 450 kts 329°
2026-04-20 15:12 9.81148 123.80075 33943 ft 451 kts 329°
2026-04-20 15:13 9.86233 123.77127 33944 ft 451 kts 329°
2026-04-20 15:13 9.91679 123.73965 33937 ft 451 kts 329°
2026-04-20 15:14 9.96735 123.71014 33942 ft 451 kts 329°
2026-04-20 15:14 10.01822 123.68049 33936 ft 451 kts 329°
2026-04-20 15:15 10.06907 123.65083 33938 ft 451 kts 329°
2026-04-20 15:15 10.12359 123.61897 33941 ft 452 kts 329°
2026-04-20 15:16 10.17451 123.58923 33946 ft 452 kts 329°
2026-04-20 15:16 10.22559 123.55937 33944 ft 452 kts 329°
2026-04-20 15:17 10.27652 123.52958 33948 ft 453 kts 329°
2026-04-20 15:17 10.32735 123.49982 33953 ft 453 kts 328°
2026-04-20 15:18 10.38203 123.46791 33955 ft 453 kts 329°
2026-04-20 15:18 10.43308 123.43816 33958 ft 453 kts 328°
2026-04-20 15:19 10.48425 123.40836 33961 ft 454 kts 328°
2026-04-20 15:19 10.53499 123.37867 33960 ft 454 kts 328°
2026-04-20 15:20 10.58626 123.34875 33960 ft 454 kts 329°
2026-04-20 15:20 10.63676 123.31934 33959 ft 454 kts 328°
2026-04-20 15:21 10.69223 123.28681 33958 ft 454 kts 328°
2026-04-20 15:21 10.74344 123.25684 33959 ft 455 kts 328°
2026-04-20 15:22 10.79839 123.22477 33956 ft 455 kts 328°
2026-04-20 15:22 10.84942 123.19482 33956 ft 455 kts 328°
2026-04-20 15:23 10.90066 123.16468 33956 ft 456 kts 328°
2026-04-20 15:23 10.95191 123.13460 33954 ft 456 kts 328°
2026-04-20 15:24 11.00687 123.10228 33951 ft 456 kts 328°
2026-04-20 15:24 11.06183 123.07008 33953 ft 456 kts 328°
2026-04-20 15:25 11.11328 123.03992 33955 ft 456 kts 328°
2026-04-20 15:25 11.16454 123.00976 33954 ft 456 kts 328°
2026-04-20 15:26 11.21590 122.97951 33956 ft 456 kts 328°
2026-04-20 15:26 11.26728 122.94934 33955 ft 456 kts 328°
2026-04-20 15:27 11.31853 122.91919 33955 ft 456 kts 328°
2026-04-20 15:27 11.37319 122.88700 33955 ft 457 kts 328°
2026-04-20 15:28 11.42473 122.85665 33956 ft 457 kts 328°
2026-04-20 15:28 11.47610 122.82633 33957 ft 457 kts 328°
2026-04-20 15:29 11.52768 122.79593 33954 ft 457 kts 328°
2026-04-20 15:29 11.58279 122.76345 33951 ft 458 kts 328°
2026-04-20 15:30 11.63338 122.73233 33952 ft 457 kts 325°
2026-04-20 15:30 11.68628 122.69631 33951 ft 457 kts 323°
2026-04-20 15:31 11.73545 122.66203 33952 ft 457 kts 323°
2026-04-20 15:31 11.78451 122.62850 33953 ft 457 kts 324°
2026-04-20 15:32 11.83437 122.59505 33955 ft 458 kts 324°
2026-04-20 15:32 11.88410 122.56185 33953 ft 458 kts 324°
2026-04-20 15:33 11.93734 122.52605 33950 ft 458 kts 324°
2026-04-20 15:33 11.98710 122.49237 33951 ft 458 kts 324°
2026-04-20 15:34 12.03676 122.45878 33950 ft 458 kts 324°
2026-04-20 15:34 12.09003 122.42273 33953 ft 459 kts 324°
2026-04-20 15:35 12.13935 122.38945 33950 ft 459 kts 324°
2026-04-20 15:35 12.18916 122.35583 33954 ft 459 kts 324°
2026-04-20 15:36 12.23902 122.32213 33949 ft 460 kts 323°
2026-04-20 15:36 12.29049 122.28729 33948 ft 460 kts 323°
2026-04-20 15:37 12.34228 122.25224 33954 ft 460 kts 323°
2026-04-20 15:37 12.39224 122.21828 33950 ft 460 kts 323°
2026-04-20 15:38 12.44169 122.18400 33949 ft 460 kts 323°
2026-04-20 15:38 12.49460 122.14700 33948 ft 460 kts 323°
2026-04-20 15:39 12.54403 122.11249 33951 ft 461 kts 323°
2026-04-20 15:39 12.59703 122.07560 33950 ft 461 kts 323°
2026-04-20 15:40 12.64658 122.04118 33957 ft 461 kts 323°
2026-04-20 15:40 12.69589 122.00697 33957 ft 461 kts 323°
2026-04-20 15:41 12.74894 121.97009 33958 ft 461 kts 322°
2026-04-20 15:41 12.79850 121.93558 33958 ft 461 kts 323°
2026-04-20 15:42 12.84799 121.90103 33962 ft 461 kts 322°
2026-04-20 15:42 12.87432 121.88266 33722 ft 455 kts 322°
2026-04-20 15:42 12.89696 121.86691 33503 ft 451 kts 322°
2026-04-20 15:42 12.92279 121.84892 33249 ft 448 kts 322°
2026-04-20 15:43 12.94507 121.83337 33031 ft 446 kts 322°
2026-04-20 15:43 12.97063 121.81551 32780 ft 444 kts 322°
2026-04-20 15:43 12.99608 121.79770 32535 ft 442 kts 322°
2026-04-20 15:43 13.02138 121.78000 32221 ft 438 kts 322°
2026-04-20 15:44 13.04323 121.76474 31771 ft 437 kts 322°
2026-04-20 15:44 13.06834 121.74722 31255 ft 435 kts 322°
2026-04-20 15:44 13.09010 121.73205 30811 ft 434 kts 322°
2026-04-20 15:44 13.11502 121.71466 30307 ft 432 kts 322°
2026-04-20 15:45 13.13982 121.69731 29781 ft 431 kts 323°
2026-04-20 15:45 13.16449 121.68005 29278 ft 427 kts 323°
2026-04-20 15:45 13.18585 121.66512 28869 ft 424 kts 323°
2026-04-20 15:45 13.21013 121.64813 28400 ft 421 kts 323°
2026-04-20 15:46 13.23421 121.63125 27940 ft 417 kts 323°
2026-04-20 15:46 13.25503 121.61669 27532 ft 415 kts 323°
2026-04-20 15:46 13.27884 121.60006 27069 ft 413 kts 324°
2026-04-20 15:46 13.29941 121.58566 26658 ft 411 kts 324°
2026-04-20 15:47 13.31504 121.57471 26347 ft 410 kts 324°
2026-04-20 15:47 13.34508 121.55364 25727 ft 408 kts 324°
2026-04-20 15:47 13.35905 121.54385 25443 ft 408 kts 324°
2026-04-20 15:47 13.38249 121.52743 24949 ft 407 kts 324°
2026-04-20 15:48 13.40376 121.51253 24481 ft 407 kts 324°
2026-04-20 15:48 13.42622 121.49678 23993 ft 407 kts 325°
2026-04-20 15:48 13.44965 121.48035 23455 ft 408 kts 325°
2026-04-20 15:48 13.46985 121.46618 23081 ft 404 kts 325°
2026-04-20 15:49 13.49305 121.44997 22686 ft 398 kts 326°
2026-04-20 15:49 13.51388 121.43861 22488 ft 382 kts 337°
2026-04-20 15:49 13.53811 121.42826 21944 ft 374 kts 337°
2026-04-20 15:49 13.56207 121.41821 21615 ft 369 kts 338°
2026-04-20 15:50 13.58268 121.40965 21297 ft 366 kts 338°
2026-04-20 15:50 13.60622 121.39989 20920 ft 363 kts 338°
2026-04-20 15:50 13.62660 121.39145 20609 ft 361 kts 338°
2026-04-20 15:50 13.64973 121.38183 20272 ft 357 kts 338°
2026-04-20 15:51 13.67264 121.37227 19923 ft 354 kts 338°
2026-04-20 15:51 13.69539 121.36279 19581 ft 351 kts 338°
2026-04-20 15:51 13.71503 121.35460 19281 ft 349 kts 338°
2026-04-20 15:51 13.73715 121.34535 18951 ft 347 kts 338°
2026-04-20 15:52 13.75661 121.33719 18669 ft 344 kts 338°
2026-04-20 15:52 13.77869 121.32792 18348 ft 342 kts 338°
2026-04-20 15:52 13.80066 121.31869 17993 ft 339 kts 338°
2026-04-20 15:53 13.84136 121.30167 17316 ft 335 kts 338°
2026-04-20 15:53 13.86290 121.29267 16965 ft 333 kts 338°
2026-04-20 15:53 13.88155 121.28488 16663 ft 331 kts 338°
2026-04-20 15:53 13.90281 121.27598 16330 ft 329 kts 338°
2026-04-20 15:54 13.92393 121.26710 16002 ft 327 kts 338°
2026-04-20 15:54 13.94225 121.25940 15716 ft 325 kts 338°
2026-04-20 15:54 13.96318 121.25062 15406 ft 323 kts 339°
2026-04-20 15:54 13.98124 121.24306 15135 ft 321 kts 338°
2026-04-20 15:55 14.00186 121.23438 14962 ft 321 kts 339°
2026-04-20 15:55 14.02253 121.22573 14802 ft 320 kts 339°
2026-04-20 15:55 14.04047 121.21824 14659 ft 319 kts 339°
2026-04-20 15:55 14.06103 121.20965 14498 ft 319 kts 339°
2026-04-20 15:56 14.07897 121.20214 14357 ft 318 kts 339°
2026-04-20 15:56 14.09936 121.19355 14161 ft 317 kts 339°
2026-04-20 15:56 14.11795 121.18573 13951 ft 315 kts 339°
2026-04-20 15:56 14.13737 121.17763 13734 ft 314 kts 339°
2026-04-20 15:57 14.15726 121.16930 13483 ft 312 kts 339°
2026-04-20 15:57 14.17475 121.16194 13258 ft 311 kts 339°
2026-04-20 15:57 14.19476 121.15351 13008 ft 310 kts 339°
2026-04-20 15:57 14.21295 121.14586 12781 ft 309 kts 340°
2026-04-20 15:58 14.23203 121.13786 12536 ft 308 kts 340°
2026-04-20 15:58 14.25181 121.12955 12293 ft 307 kts 340°
2026-04-20 15:58 14.26905 121.12231 12077 ft 306 kts 340°
2026-04-20 15:58 14.28873 121.11404 11838 ft 305 kts 340°
2026-04-20 15:59 14.30577 121.10686 11617 ft 304 kts 340°
2026-04-20 15:59 14.32514 121.09869 11387 ft 303 kts 340°
2026-04-20 15:59 14.34435 121.08975 11145 ft 304 kts 329°
2026-04-20 15:59 14.35789 121.07694 10938 ft 306 kts 307°
2026-04-20 16:00 14.36654 121.05703 10702 ft 308 kts 281°
2026-04-20 16:00 14.36686 121.03803 10509 ft 308 kts 259°
2026-04-20 16:00 14.35914 121.01745 10273 ft 307 kts 239°
2026-04-20 16:00 14.34816 120.99853 10041 ft 308 kts 237°
2026-04-20 16:01 14.33836 120.98227 9846 ft 307 kts 237°
2026-04-20 16:01 14.32707 120.96360 9583 ft 306 kts 237°
2026-04-20 16:01 14.31745 120.94771 9376 ft 305 kts 237°
2026-04-20 16:01 14.30623 120.92918 9127 ft 303 kts 237°
2026-04-20 16:02 14.29505 120.91077 8879 ft 302 kts 237°
2026-04-20 16:02 14.28538 120.89483 8663 ft 301 kts 237°
2026-04-20 16:02 14.27427 120.87658 8418 ft 300 kts 237°
2026-04-20 16:02 14.26317 120.85837 8176 ft 300 kts 237°
2026-04-20 16:03 14.25212 120.84023 7927 ft 298 kts 237°
2026-04-20 16:03 14.24257 120.82456 7717 ft 296 kts 237°
2026-04-20 16:03 14.23162 120.80662 7479 ft 295 kts 237°
2026-04-20 16:03 14.22214 120.79111 7117 ft 296 kts 237°
2026-04-20 16:04 14.21119 120.77323 6746 ft 293 kts 237°
2026-04-20 16:04 14.20108 120.75506 6364 ft 292 kts 249°
2026-04-20 16:04 14.19774 120.73465 5970 ft 290 kts 272°
2026-04-20 16:04 14.19940 120.71409 5580 ft 287 kts 278°
2026-04-20 16:05 14.20179 120.69648 5244 ft 287 kts 279°
2026-04-20 16:05 14.20705 120.67679 4995 ft 279 kts 300°
2026-04-20 16:05 14.21818 120.66124 4995 ft 263 kts 312°
2026-04-20 16:05 14.22856 120.64902 4990 ft 260 kts 313°
2026-04-20 16:06 14.24227 120.63725 4991 ft 256 kts 336°
2026-04-20 16:06 14.25737 120.63276 4993 ft 252 kts 359°
2026-04-20 16:06 14.27412 120.63490 4995 ft 248 kts 22°
2026-04-20 16:06 14.28856 120.64385 4988 ft 246 kts 46°
2026-04-20 16:07 14.29999 120.65696 4996 ft 246 kts 50°
2026-04-20 16:07 14.30992 120.66839 5000 ft 247 kts 49°
2026-04-20 16:07 14.32090 120.68194 4994 ft 246 kts 55°
2026-04-20 16:07 14.32854 120.69492 4996 ft 245 kts 62°
2026-04-20 16:08 14.33668 120.71039 4998 ft 243 kts 62°
2026-04-20 16:08 14.34482 120.72528 4995 ft 236 kts 61°
2026-04-20 16:08 14.35191 120.73801 4999 ft 235 kts 61°
2026-04-20 16:08 14.35990 120.75231 4998 ft 223 kts 61°
2026-04-20 16:09 14.36644 120.76403 4930 ft 213 kts 61°
2026-04-20 16:09 14.37376 120.77716 4713 ft 210 kts 61°
2026-04-20 16:09 14.38099 120.79016 4453 ft 208 kts 61°
2026-04-20 16:09 14.38727 120.80142 4218 ft 207 kts 61°
2026-04-20 16:10 14.39442 120.81426 3958 ft 206 kts 61°
2026-04-20 16:10 14.40152 120.82700 3694 ft 204 kts 61°
2026-04-20 16:10 14.40766 120.83802 3467 ft 202 kts 61°
2026-04-20 16:10 14.41464 120.85055 3217 ft 202 kts 61°
2026-04-20 16:11 14.42169 120.86322 2954 ft 204 kts 61°
2026-04-20 16:11 14.42876 120.87592 2711 ft 204 kts 60°
2026-04-20 16:11 14.43485 120.88682 2471 ft 199 kts 60°
2026-04-20 16:11 14.44159 120.89891 2209 ft 190 kts 60°
2026-04-20 16:12 14.44718 120.90899 2002 ft 187 kts 61°
2026-04-20 16:12 14.45353 120.92045 1765 ft 177 kts 62°
2026-04-20 16:12 14.45945 120.93107 1553 ft 165 kts 61°
2026-04-20 16:12 14.46486 120.94077 1334 ft 150 kts 60°
2026-04-20 16:13 14.46990 120.94984 1155 ft 143 kts 62°
2026-04-20 16:13 14.47403 120.95725 998 ft 142 kts 60°
2026-04-20 16:13 14.47891 120.96599 829 ft 140 kts 61°
2026-04-20 16:13 14.48377 120.97470 637 ft 140 kts 62°
2026-04-20 16:14 14.48859 120.98340 427 ft 140 kts 61°
2026-04-20 16:14 14.49343 120.99208 278 ft 139 kts 61°
2026-04-20 16:14 14.49824 121.00071 110 ft 138 kts 62°
2026-04-20 16:14 14.50221 121.00785 65 ft 120 kts 62°
2026-04-20 16:15 14.50551 121.01384 70 ft 71 kts 60°
2026-04-20 16:15 14.50680 121.01616 66 ft 20 kts 60°
2026-04-20 16:15 14.50722 121.01680 69 ft 10 kts 44°
2026-04-20 16:15 14.50787 121.01735 68 ft 15 kts 38°
2026-04-20 16:16 14.50860 121.01788 68 ft 10 kts 17°
2026-04-20 16:16 14.50905 121.01757 68 ft 7 kts 279°
2026-04-20 16:16 14.50888 121.01713 63 ft 6 kts 239°
2026-04-20 16:16 14.50892 121.01673 66 ft 8 kts 301°
2026-04-20 16:17 14.50932 121.01627 64 ft 8 kts 314°
2026-04-20 16:17 14.50968 121.01589 67 ft 7 kts 314°
2026-04-20 16:17 14.51001 121.01555 68 ft 6 kts 315°
2026-04-20 16:17 14.51030 121.01525 65 ft 6 kts 315°
2026-04-20 16:18 14.51057 121.01497 67 ft 5 kts 314°
2026-04-20 16:18 14.51075 121.01468 68 ft 6 kts 275°
2026-04-20 16:18 14.51051 121.01433 68 ft 5 kts 226°
2026-04-20 16:18 14.51034 121.01416 64 ft 3 kts 225°
2026-04-20 16:19 14.51026 121.01407 64 ft 1 kts 225°